This demonstration page uses our WeatherBlox Daily Observations layout. Learn more.

Left ArrowRight Arrow

41.86663, -103.66717

Hourly Observations for June 26, 2020

Temp ( °F °C ) Dew Point ( °F °C ) Humidity (%) Winds ( mph kmh ) Pressure ( in mb ) Visibility ( mi km ) Precip ( " mm )
12:53 am 00:53 Clear 63 17.2 62 16.7 97 97 E 10 17 29.88 1012 10 16 0.00 0.00
1:53 am 01:53 Clear 62 16.7 60 15.6 93 93 W 6 9 29.91 1013 10 16 0.00 0.00
2:53 am 02:53 Clear 62 16.7 60 15.6 93 93 W 8 13 29.91 1013 10 16 0.00 0.00
3:53 am 03:53 Clear 62 16.7 61 16.1 96 96 W 9 15 29.91 1013 10 16 0.00 0.00
4:53 am 04:53 Clear 61 16.1 60 15.6 97 97 W 6 9 29.95 1014 10 16 0.00 0.00
5:53 am 05:53 Sunny 61 16.1 60 15.6 97 97 WNW 6 9 29.95 1014 10 16 0.00 0.00
6:53 am 06:53 Sunny 63 17.2 60 15.6 90 90 WNW 9 15 29.98 1015 10 16 0.00 0.00
7:53 am 07:53 Sunny 66 18.9 60 15.6 81 81 WNW 5 7 30.00 1016 10 16 0.00 0.00
8:53 am 08:53 Mostly Sunny 70 21.1 59 15 68 68 NNE 5 7 29.98 1015 10 16 0.00 0.00
9:53 am 09:53 Mostly Sunny 74 23.3 59 15 60 60 ENE 8 13 29.97 1015 10 16 0.00 0.00
10:53 am 10:53 undefined 77 25 59 15 54 54 ESE 6 9 29.98 1015 10 16 0.00 0.00
11:53 am 11:53 Mostly Sunny 79 26.1 60 15.6 52 52 VRB 5 7 29.97 1015 10 16 0.00 0.00
12:53 pm 12:53 Sunny 80 26.7 59 15 49 49 VRB 5 7 29.95 1014 10 16 0.00 0.00
1:53 pm 13:53 Mostly Cloudy 81 27.2 59 15 47 47 SE 9 15 29.93 1014 10 16 0.00 0.00
2:53 pm 14:53 Sunny 82 27.8 57 13.9 42 42 Calm 29.91 1013 10 16 0.00 0.00
3:53 pm 15:53 Sunny 85 29.4 57 13.9 39 39 SW 9 15 29.89 1012 10 16 0.00 0.00
4:53 pm 16:53 Sunny 82 27.8 57 13.9 42 42 SSE 3 6 29.89 1012 10 16 0.00 0.00
5:53 pm 17:53 Sunny 80 26.7 59 15 49 49 undefined N/A 29.85 1011 10 16 0.00 0.00
6:53 pm 18:53 Sunny 80 26.7 61 16.1 52 52 E 7 11 29.84 1011 10 16 0.00 0.00
7:53 pm 19:53 Sunny 78 25.6 63 17.2 60 60 S 12 19 29.87 1012 10 16 0.00 0.00
8:53 pm 20:53 Mostly Cloudy 73 22.8 59 15 62 62 E 3 6 29.86 1011 10 16 0.00 0.00
9:53 pm 21:53 Mostly Cloudy 72 22.2 60 15.6 66 66 SE 9 15 29.87 1012 10 16 0.00 0.00
10:53 pm 22:53 Clear 68 20 60 15.6 76 76 ESE 5 7 29.84 1011 10 16 0.00 0.00
11:53 pm 23:53 Clear 65 18.3 60 15.6 84 84 E 6 9 29.84 1011 10 16 0.00 0.00

Powered by AerisWeather